Flag for Canada Weather past 2 weeks in Timmins, Ontario, Canada

Now
N/A

Partly sunny.


Feels Like: N/A
Forecast: 28 / 39 °F
Wind: 9 mph from Northeast

Location: Timmins

Current Time: Oct 21, 2014 at 2:34:45 PM

Latest Report: Oct 21, 2014 at 1:00 PM


Visibility: 15 mi

Pressure: N/A

Humidity: N/A

Dew point: N/A

Location of TimminsLocation

Historic Weather in Timmins — Graph

°F

Timmins temperature yesterday

Maximum temperature yesterday: 39 °F (at 12:00 PM)
Minimum temperature yesterday: 34 °F (at 1:00 AM)
Average temperature yesterday: 36 °F

Past Weeks' High & Low Weather Summary

 TemperatureHumidityPressure
High57 °F (Oct 12, 2:00 PM)100% (Oct 7, 5:00 AM)30.31 "Hg (Oct 7, 5:00 AM)
Low27 °F (Oct 21, 4:00 AM)47% (Oct 12, 1:00 PM)29.28 "Hg (Oct 17, 1:00 PM)
Average40 °F89%29.85 "Hg
* Reported Oct 6 1:00 PM — Oct 21 1:00 PM, Timmins, Weather by CustomWeather, © 2014

Note: Actual official high and low records may vary slightly from our data, if they occured in-between our weather recording intervals... More about our weather records

Advertising

Timmins weather history for previous 24 hours

 ConditionsComfort  
Time TempWeatherWind HumidityBarometerVisibility
1:00 PM
Oct 21
N/APartly sunny.9 mphN/AN/A15 mi
12:00 PM32 °FSnow flurries. Mostly cloudy.10 mph93%30.31 "Hg2 mi
11:00 AM34 °FOvercast.10 mph81%30.30 "Hg15 mi
10:00 AM32 °FOvercast.6 mph87%30.28 "Hg15 mi
9:00 AM30 °FSnow flurries. Broken clouds.8 mph100%30.26 "Hg10 mi
8:00 AM30 °FSnow flurries. Mostly cloudy.5 mph93%30.24 "Hg10 mi
7:55 AM30 °FSnow flurries. Mostly cloudy.7 mph93%30.24 "Hg6 mi
7:00 AM30 °FLight snow. Overcast.6 mph93%30.21 "Hg15 mi
6:00 AM30 °FOvercast.7 mph93%30.19 "Hg15 mi
5:00 AM28 °FPassing clouds.6 mph93%30.17 "Hg15 mi
4:00 AM27 °FClear.6 mph100%30.14 "Hg15 mi
3:00 AM28 °FPassing clouds.6 mph93%30.12 "Hg15 mi
2:00 AM28 °FPassing clouds.6 mph93%30.10 "Hg15 mi
1:00 AM30 °FPassing clouds.8 mph93%30.09 "Hg15 mi
12:00 AM32 °FOvercast.8 mph93%30.07 "Hg15 mi
11:00 PM
Oct 20
34 °FOvercast.9 mph93%30.05 "Hg15 mi
10:00 PM36 °FOvercast.7 mph93%30.03 "Hg15 mi
9:00 PM36 °FOvercast.5 mph100%30.01 "Hg15 mi
8:00 PM36 °FOvercast.5 mph100%29.99 "Hg15 mi
7:00 PM37 °FCloudy.8 mph93%29.96 "Hg15 mi
6:00 PM37 °FLight rain. Mostly cloudy.8 mph100%29.92 "Hg12 mi
5:00 PM39 °FLight rain. Mostly cloudy.9 mph93%29.89 "Hg12 mi
4:00 PM39 °FLight rain. Mostly cloudy.8 mph93%29.88 "Hg15 mi
3:00 PM39 °FLight rain. Mostly cloudy.8 mph93%29.86 "Hg15 mi
2:00 PM39 °FLight rain. Cloudy.7 mph93%29.85 "Hg15 mi
Weather by CustomWeather, © 2014

See weather overviewHow to use our weather pages